Time,TemperatureF,DewpointF,PressureIn,WindDirection,WindDirectionDegrees,WindSpeedMPH,WindSpeedGustMPH,Humidity,HourlyPrecipIn,Conditions,Clouds,dailyrainin,SolarRadiationWatts/m^2,SoftwareType,DateUTC
2013-02-01 00:00:00,-0.6,-12.6,30.36,WSW,248,1.4,2.3,56,0.00,CLR,SCT,0.00,0.0,WeatherDisplay:10.37,2013-02-01 06:00:00,
2013-02-01 00:05:00,-0.9,-12.9,30.36,WSW,248,1.6,2.4,56,0.00,CLR,SCT,0.00,0.0,WeatherDisplay:10.37,2013-02-01 06:05:00,
2013-02-01 00:10:00,-1.3,-13.2,30.36,WSW,248,1.4,2.3,56,0.00,CLR,SCT,0.00,0.0,WeatherDisplay:10.37,2013-02-01 06:10:00,
2013-02-01 00:15:00,-1.3,-13.2,30.36,West,270,1.4,2.3,56,0.00,CLR,SCT,0.00,0.0,WeatherDisplay:10.37,2013-02-01 06:15:00,
2013-02-01 00:20:00,-1.3,-13.2,30.36,WNW,292,2.0,3.5,56,0.00,CLR,SCT,0.00,0.0,WeatherDisplay:10.37,2013-02-01 06:20:00,
2013-02-01 00:25:00,-1.5,-13.4,30.36,WNW,292,2.4,3.5,56,0.00,CLR,SCT,0.00,0.0,WeatherDisplay:10.37,2013-02-01 06:25:00,
2013-02-01 00:30:00,-1.7,-13.6,30.36,West,270,2.2,2.6,56,0.00,CLR,SCT,0.00,0.0,WeatherDisplay:10.37,2013-02-01 06:30:00,
2013-02-01 00:35:00,-1.7,-13.6,30.36,WNW,292,1.4,2.3,56,0.00,CLR,SCT,0.00,0.0,WeatherDisplay:10.37,2013-02-01 06:35:00,
2013-02-01 00:40:00,-1.8,-13.7,30.39,WNW,292,1.4,2.3,56,0.00,CLR,SCT,0.00,0.0,WeatherDisplay:10.37,2013-02-01 06:40:00,
2013-02-01 00:46:00,-1.8,-13.7,30.39,West,270,2.0,2.3,56,0.00,CLR,SCT,0.00,0.0,WeatherDisplay:10.37,2013-02-01 06:46:00,
2013-02-01 00:51:00,-1.8,-13.7,30.39,WNW,292,2.0,2.3,56,0.00,CLR,SCT,0.00,0.0,WeatherDisplay:10.37,2013-02-01 06:51:00,
2013-02-01 00:56:00,-2.0,-13.9,30.36,WNW,292,1.4,2.3,56,0.00,CLR,SCT,0.00,0.0,WeatherDisplay:10.37,2013-02-01 06:56:00,
2013-02-01 01:01:00,-2.0,-13.9,30.36,WNW,292,1.4,2.3,56,0.00,CLR,SCT,0.00,0.0,WeatherDisplay:10.37,2013-02-01 07:01:00,
2013-02-01 01:06:00,-2.0,-13.9,30.36,North,0,0.0,1.1,56,0.00,CLR,SCT,0.00,0.0,WeatherDisplay:10.37,2013-02-01 07:06:00,
2013-02-01 01:11:00,-2.0,-13.9,30.36,WNW,292,0.0,1.4,56,0.00,CLR,SCT,0.00,0.0,WeatherDisplay:10.37,2013-02-01 07:11:00,
2013-02-01 01:16:00,-2.0,-13.9,30.36,WNW,292,0.0,1.1,56,0.00,CLR,SCT,0.00,0.0,WeatherDisplay:10.37,2013-02-01 07:16:00,
2013-02-01 01:21:00,-2.0,-13.9,30.36,NNW,338,1.1,1.1,56,0.00,CLR,SCT,0.00,0.0,WeatherDisplay:10.37,2013-02-01 07:21:00,
2013-02-01 01:26:00,-2.0,-13.9,30.36,NNE,22,0.0,0.0,56,0.00,CLR,SCT,0.00,0.0,WeatherDisplay:10.37,2013-02-01 07:26:00,
2013-02-01 01:31:00,-2.0,-13.9,30.36,NNE,22,0.9,2.3,56,0.00,CLR,SCT,0.00,0.0,WeatherDisplay:10.37,2013-02-01 07:31:00,
2013-02-01 01:36:00,-1.8,-13.7,30.36,NNE,22,1.6,2.3,56,0.00,CLR,SCT,0.00,0.0,WeatherDisplay:10.37,2013-02-01 07:36:00,
2013-02-01 01:41:00,-1.8,-13.7,30.36,North,0,1.1,2.0,56,0.00,CLR,SCT,0.00,0.0,WeatherDisplay:10.37,2013-02-01 07:41:00,
2013-02-01 01:46:00,-1.8,-13.7,30.36,NNE,22,0.0,1.1,56,0.00,CLR,SCT,0.00,0.0,WeatherDisplay:10.37,2013-02-01 07:46:00,
2013-02-01 01:52:00,-1.8,-13.7,30.36,ENE,68,0.0,0.0,56,0.00,CLR,SCT,0.00,0.0,WeatherDisplay:10.37,2013-02-01 07:52:00,
2013-02-01 01:57:00,-2.0,-13.9,30.33,NNW,338,0.0,1.4,56,0.00,CLR,SCT,0.00,0.0,WeatherDisplay:10.37,2013-02-01 07:57:00,
2013-02-01 02:02:00,-2.0,-13.9,30.33,WNW,292,0.0,0.0,56,0.00,CLR,SCT,0.00,0.0,WeatherDisplay:10.37,2013-02-01 08:02:00,
2013-02-01 02:07:00,-2.0,-13.9,30.33,SSW,202,1.6,2.3,56,0.00,CLR,SCT,0.00,0.0,WeatherDisplay:10.37,2013-02-01 08:07:00,
2013-02-01 02:12:00,-2.0,-13.9,30.36,SSE,158,1.6,2.3,56,0.00,CLR,SCT,0.00,0.0,WeatherDisplay:10.37,2013-02-01 08:12:00,
2013-02-01 02:17:00,-2.2,-14.1,30.36,ESE,112,1.6,3.5,56,0.00,CLR,SCT,0.00,0.0,WeatherDisplay:10.37,2013-02-01 08:17:00,
2013-02-01 02:22:00,-2.2,-14.1,30.36,SSE,158,2.0,2.6,56,0.00,CLR,SCT,0.00,0.0,WeatherDisplay:10.37,2013-02-01 08:22:00,
2013-02-01 02:27:00,-2.4,-14.2,30.36,South,180,1.6,2.3,56,0.00,CLR,SCT,0.00,0.0,WeatherDisplay:10.37,2013-02-01 08:27:00,
2013-02-01 02:32:00,-2.4,-14.2,30.36,SSW,202,2.6,4.6,56,0.00,CLR,SCT,0.00,0.0,WeatherDisplay:10.37,2013-02-01 08:32:00,
2013-02-01 02:37:00,-2.6,-14.4,30.36,SSE,158,0.0,1.1,56,0.00,CLR,SCT,0.00,0.0,WeatherDisplay:10.37,2013-02-01 08:37:00,
2013-02-01 02:42:00,-2.6,-14.4,30.33,East,90,1.6,2.0,56,0.00,CLR,SCT,0.00,0.0,WeatherDisplay:10.37,2013-02-01 08:42:00,
2013-02-01 02:47:00,-2.7,-14.6,30.33,East,90,1.6,2.3,56,0.00,CLR,SCT,0.00,0.0,WeatherDisplay:10.37,2013-02-01 08:47:00,
2013-02-01 02:52:00,-2.9,-14.8,30.33,ENE,68,2.4,2.4,56,0.00,CLR,SCT,0.00,0.0,WeatherDisplay:10.37,2013-02-01 08:52:00,
2013-02-01 02:58:00,-3.1,-14.9,30.36,NNE,22,2.0,2.3,56,0.00,CLR,SCT,0.00,0.0,WeatherDisplay:10.37,2013-02-01 08:58:00,
2013-02-01 03:03:00,-3.1,-14.9,30.36,East,90,1.1,1.6,56,0.00,CLR,SCT,0.00,0.0,WeatherDisplay:10.37,2013-02-01 09:03:00,
2013-02-01 03:08:00,-3.1,-14.9,30.36,East,90,1.6,2.3,56,0.00,CLR,SCT,0.00,0.0,WeatherDisplay:10.37,2013-02-01 09:08:00,
2013-02-01 03:13:00,-3.1,-14.9,30.33,ESE,112,1.6,2.3,56,0.00,CLR,SCT,0.00,0.0,WeatherDisplay:10.37,2013-02-01 09:13:00,
2013-02-01 03:18:00,-3.1,-14.9,30.33,NE,45,0.0,0.0,56,0.00,CLR,SCT,0.00,0.0,WeatherDisplay:10.37,2013-02-01 09:18:00,
2013-02-01 03:23:00,-3.1,-14.9,30.33,East,90,2.2,2.6,56,0.00,CLR,SCT,0.00,0.0,WeatherDisplay:10.37,2013-02-01 09:23:00,
2013-02-01 03:28:00,-3.3,-15.1,30.33,ESE,112,0.0,1.1,56,0.00,CLR,SCT,0.00,0.0,WeatherDisplay:10.37,2013-02-01 09:28:00,
2013-02-01 03:33:00,-3.1,-14.9,30.33,NNE,22,1.1,2.3,56,0.00,CLR,SCT,0.00,0.0,WeatherDisplay:10.37,2013-02-01 09:33:00,
2013-02-01 03:38:00,-3.3,-15.1,30.33,WNW,292,0.0,0.0,56,0.00,CLR,SCT,0.00,0.0,WeatherDisplay:10.37,2013-02-01 09:38:00,
2013-02-01 03:43:00,-3.5,-15.3,30.33,WSW,248,2.2,3.3,56,0.00,CLR,SCT,0.00,0.0,WeatherDisplay:10.37,2013-02-01 09:43:00,
2013-02-01 03:48:00,-3.3,-15.1,30.33,SSW,202,2.4,2.4,56,0.00,CLR,SCT,0.00,0.0,WeatherDisplay:10.37,2013-02-01 09:48:00,
2013-02-01 03:53:00,-3.1,-14.9,30.36,WSW,248,3.8,4.6,56,0.00,CLR,SCT,0.00,0.0,WeatherDisplay:10.37,2013-02-01 09:53:00,
2013-02-01 03:59:00,-2.4,-14.2,30.36,WSW,248,4.0,5.8,56,0.00,CLR,SCT,0.00,0.0,WeatherDisplay:10.37,2013-02-01 09:59:00,
2013-02-01 04:04:00,-2.2,-14.1,30.36,SSW,202,3.8,5.8,56,0.00,CLR,SCT,0.00,0.0,WeatherDisplay:10.37,2013-02-01 10:04:00,
2013-02-01 04:09:00,-1.8,-13.7,30.36,SW,225,3.3,4.6,56,0.00,CLR,SCT,0.00,0.0,WeatherDisplay:10.37,2013-02-01 10:09:00,
2013-02-01 04:14:00,-1.5,-13.4,30.36,SSW,202,2.9,3.5,56,0.00,CLR,SCT,0.00,0.0,WeatherDisplay:10.37,2013-02-01 10:14:00,
2013-02-01 04:19:00,-1.3,-13.2,30.36,WSW,248,1.4,2.3,56,0.00,CLR,SCT,0.00,0.0,WeatherDisplay:10.37,2013-02-01 10:19:00,
2013-02-01 04:24:00,-0.9,-12.9,30.33,SSW,202,2.9,3.5,56,0.00,CLR,SCT,0.00,0.0,WeatherDisplay:10.37,2013-02-01 10:24:00,
2013-02-01 04:29:00,-0.6,-12.6,30.33,SSW,202,2.0,2.4,56,0.00,CLR,SCT,0.00,0.0,WeatherDisplay:10.37,2013-02-01 10:29:00,
2013-02-01 04:34:00,-0.4,-12.4,30.33,SSW,202,2.0,2.3,56,0.00,CLR,SCT,0.00,0.0,WeatherDisplay:10.37,2013-02-01 10:34:00,
2013-02-01 04:39:00,0.0,-12.0,30.33,WSW,248,2.2,3.3,56,0.00,CLR,SCT,0.00,0.0,WeatherDisplay:10.37,2013-02-01 10:39:00,
2013-02-01 04:44:00,0.1,-11.9,30.33,SSW,202,1.6,2.9,56,0.00,CLR,SCT,0.00,0.0,WeatherDisplay:10.37,2013-02-01 10:44:00,
2013-02-01 04:50:00,0.3,-11.7,30.33,SSW,202,3.3,4.6,56,0.00,CLR,SCT,0.00,0.0,WeatherDisplay:10.37,2013-02-01 10:50:00,
2013-02-01 04:55:00,0.5,-11.5,30.33,SSW,202,2.6,3.5,56,0.00,CLR,SCT,0.00,0.0,WeatherDisplay:10.37,2013-02-01 10:55:00,
2013-02-01 05:00:00,0.7,-11.4,30.33,WSW,248,2.4,4.6,56,0.00,CLR,SCT,0.00,0.0,WeatherDisplay:10.37,2013-02-01 11:00:00,
2013-02-01 05:05:00,0.7,-11.4,30.33,SSW,202,3.1,4.0,56,0.00,CLR,SCT,0.00,0.0,WeatherDisplay:10.37,2013-02-01 11:05:00,
2013-02-01 05:10:00,1.0,-11.0,30.30,SSW,202,4.0,5.8,56,0.00,CLR,SCT,0.00,0.0,WeatherDisplay:10.37,2013-02-01 11:10:00,
2013-02-01 05:15:00,1.2,-10.9,30.30,SSW,202,2.9,3.8,56,0.00,CLR,SCT,0.00,0.0,WeatherDisplay:10.37,2013-02-01 11:15:00,
2013-02-01 05:20:00,1.2,-10.9,30.30,SSW,202,2.9,4.6,56,0.00,CLR,SCT,0.00,0.0,WeatherDisplay:10.37,2013-02-01 11:20:00,
2013-02-01 05:25:00,1.2,-10.9,30.33,SSE,158,3.3,4.6,56,0.00,CLR,SCT,0.00,0.0,WeatherDisplay:10.37,2013-02-01 11:25:00,
2013-02-01 05:30:00,1.4,-10.7,30.33,WSW,248,2.0,3.5,56,0.00,CLR,SCT,0.00,0.0,WeatherDisplay:10.37,2013-02-01 11:30:00,
2013-02-01 05:35:00,1.6,-10.5,30.33,WSW,248,3.8,4.6,56,0.00,CLR,SCT,0.00,0.0,WeatherDisplay:10.37,2013-02-01 11:35:00,
2013-02-01 05:40:00,1.6,-10.5,30.30,South,180,2.6,4.6,56,0.00,CLR,SCT,0.00,0.0,WeatherDisplay:10.37,2013-02-01 11:40:00,
2013-02-01 05:45:00,1.8,-10.3,30.30,ESE,112,4.3,4.6,56,0.00,CLR,SCT,0.00,0.0,WeatherDisplay:10.37,2013-02-01 11:45:00,
2013-02-01 05:50:00,1.9,-10.2,30.30,South,180,2.9,3.5,56,0.00,CLR,SCT,0.00,0.0,WeatherDisplay:10.37,2013-02-01 11:50:00,
2013-02-01 05:55:00,1.9,-10.2,30.30,South,180,3.1,4.0,56,0.00,CLR,SCT,0.00,0.0,WeatherDisplay:10.37,2013-02-01 11:55:00,
2013-02-01 06:00:00,1.9,-10.2,30.30,SE,135,2.0,2.6,56,0.00,CLR,SCT,0.00,0.0,WeatherDisplay:10.37,2013-02-01 12:00:00,
2013-02-01 06:05:00,2.5,-9.7,30.30,SSE,158,1.1,2.3,56,0.00,CLR,SCT,0.00,0.0,WeatherDisplay:10.37,2013-02-01 12:05:00,
2013-02-01 06:10:00,2.5,-9.7,30.30,ESE,112,2.9,3.8,56,0.00,CLR,SCT,0.00,0.0,WeatherDisplay:10.37,2013-02-01 12:10:00,
2013-02-01 06:15:00,2.5,-9.7,30.30,SE,135,4.3,5.8,56,0.00,CLR,SCT,0.00,0.0,WeatherDisplay:10.37,2013-02-01 12:15:00,
2013-02-01 06:21:00,2.5,-9.7,30.30,SSW,202,3.8,4.6,56,0.00,CLR,SCT,0.00,0.0,WeatherDisplay:10.37,2013-02-01 12:21:00,
2013-02-01 06:26:00,2.7,-9.5,30.30,SSE,158,3.1,4.3,56,0.00,CLR,SCT,0.00,0.0,WeatherDisplay:10.37,2013-02-01 12:26:00,
2013-02-01 06:31:00,2.8,-9.3,30.30,South,180,4.5,4.6,56,0.00,CLR,SCT,0.00,0.0,WeatherDisplay:10.37,2013-02-01 12:31:00,
2013-02-01 06:36:00,2.8,-9.3,30.30,SSW,202,4.5,5.8,56,0.00,CLR,SCT,0.00,0.0,WeatherDisplay:10.37,2013-02-01 12:36:00,
2013-02-01 06:41:00,3.0,-9.2,30.30,SE,135,3.8,4.6,56,0.00,CLR,SCT,0.00,0.0,WeatherDisplay:10.37,2013-02-01 12:41:00,
2013-02-01 06:46:00,3.2,-9.0,30.30,South,180,4.0,4.9,56,0.00,CLR,SCT,0.00,0.0,WeatherDisplay:10.37,2013-02-01 12:46:00,
2013-02-01 06:51:00,3.2,-9.0,30.30,SSE,158,2.9,3.5,56,0.00,CLR,SCT,0.00,0.0,WeatherDisplay:10.37,2013-02-01 12:51:00,
2013-02-01 06:56:00,3.4,-8.8,30.30,South,180,3.3,5.8,56,0.00,CLR,SCT,0.00,0.0,WeatherDisplay:10.37,2013-02-01 12:56:00,
2013-02-01 07:01:00,3.4,-8.8,30.30,SSE,158,4.5,5.8,56,0.00,CLR,SCT,0.00,0.0,WeatherDisplay:10.37,2013-02-01 13:01:00,
2013-02-01 07:06:00,3.6,-8.7,30.30,South,180,2.4,4.6,56,0.00,OVC,SCT,0.00,0.0,WeatherDisplay:10.37,2013-02-01 13:06:00,
2013-02-01 07:11:00,3.6,-8.7,30.27,ESE,112,2.9,3.5,56,0.00,OVC,SCT,0.00,0.0,WeatherDisplay:10.37,2013-02-01 13:11:00,
2013-02-01 07:16:00,3.6,-8.7,30.27,ESE,112,3.3,4.6,56,0.00,OVC,SCT,0.00,0.0,WeatherDisplay:10.37,2013-02-01 13:16:00,
2013-02-01 07:21:00,3.6,-8.7,30.27,SE,135,2.9,4.6,56,0.00,OVC,SCT,0.00,0.0,WeatherDisplay:10.37,2013-02-01 13:21:00,
2013-02-01 07:26:00,3.6,-8.7,30.30,ESE,112,3.1,3.6,56,0.00,OVC,SCT,0.00,0.0,WeatherDisplay:10.37,2013-02-01 13:26:00,
2013-02-01 07:31:00,3.7,-8.5,30.30,SSE,158,3.1,4.6,56,0.00,OVC,SCT,0.00,0.0,WeatherDisplay:10.37,2013-02-01 13:31:00,
2013-02-01 07:36:00,3.7,-8.5,30.30,SSW,202,2.9,4.0,56,0.00,OVC,SCT,0.00,0.0,WeatherDisplay:10.37,2013-02-01 13:36:00,
2013-02-01 07:41:00,3.9,-8.3,30.30,SSE,158,2.6,3.5,56,0.00,OVC,SCT,0.00,0.0,WeatherDisplay:10.37,2013-02-01 13:41:00,
2013-02-01 07:46:00,4.1,-8.1,30.30,SSE,158,2.9,4.6,56,0.00,OVC,SCT,0.00,0.0,WeatherDisplay:10.37,2013-02-01 13:46:00,
2013-02-01 07:51:00,4.1,-8.1,30.30,ENE,68,3.3,5.8,56,0.00,OVC,SCT,0.00,0.0,WeatherDisplay:10.37,2013-02-01 13:51:00,
2013-02-01 07:56:00,4.1,-8.1,30.30,SSE,158,4.0,7.1,56,0.00,OVC,SCT,0.00,0.0,WeatherDisplay:10.37,2013-02-01 13:56:00,
2013-02-01 08:01:00,4.1,-8.1,30.30,SSE,158,4.7,7.4,56,0.00,OVC,SCT,0.00,0.0,WeatherDisplay:10.37,2013-02-01 14:01:00,
2013-02-01 08:06:00,4.1,-8.1,30.30,SSW,202,4.9,6.0,56,0.00,OVC,SCT,0.00,0.0,WeatherDisplay:10.37,2013-02-01 14:06:00,
2013-02-01 08:11:00,4.1,-8.1,30.30,ESE,112,4.5,7.1,56,0.00,OVC,SCT,0.00,0.0,WeatherDisplay:10.37,2013-02-01 14:11:00,
2013-02-01 08:17:00,4.1,-8.1,30.30,SSE,158,3.8,4.6,56,0.00,OVC,SCT,0.00,0.0,WeatherDisplay:10.37,2013-02-01 14:17:00,
2013-02-01 08:22:00,4.1,-8.1,30.30,SSE,158,4.3,6.2,56,0.00,OVC,SCT,0.00,0.0,WeatherDisplay:10.37,2013-02-01 14:22:00,
2013-02-01 08:27:00,4.5,-7.8,30.27,SE,135,4.3,5.8,56,0.00,OVC,SCT,0.00,0.0,WeatherDisplay:10.37,2013-02-01 14:27:00,
2013-02-01 08:32:00,4.8,-7.5,30.27,ESE,112,6.2,6.7,56,0.00,OVC,SCT,0.00,0.0,WeatherDisplay:10.37,2013-02-01 14:32:00,
2013-02-01 08:37:00,5.2,-7.1,30.27,SSE,158,2.9,4.6,56,0.00,OVC,SCT,0.00,0.0,WeatherDisplay:10.37,2013-02-01 14:37:00,
2013-02-01 08:42:00,5.5,-6.8,30.30,ESE,112,4.9,5.8,56,0.00,OVC,SCT,0.00,0.0,WeatherDisplay:10.37,2013-02-01 14:42:00,
2013-02-01 08:47:00,5.9,-6.5,30.30,ESE,112,3.6,4.9,56,0.00,OVC,SCT,0.00,0.0,WeatherDisplay:10.37,2013-02-01 14:47:00,
2013-02-01 08:52:00,5.9,-6.5,30.30,ESE,112,4.0,6.4,56,0.00,OVC,SCT,0.00,0.0,WeatherDisplay:10.37,2013-02-01 14:52:00,
2013-02-01 08:57:00,6.3,-6.1,30.30,SSW,202,4.7,6.4,56,0.00,OVC,SCT,0.00,0.0,WeatherDisplay:10.37,2013-02-01 14:57:00,
2013-02-01 09:02:00,6.4,-5.9,30.30,ESE,112,3.8,4.7,56,0.00,OVC,SCT,0.00,0.0,WeatherDisplay:10.37,2013-02-01 15:02:00,
2013-02-01 09:08:00,6.4,-5.9,30.30,ESE,112,4.9,5.8,56,0.00,OVC,SCT,0.00,0.0,WeatherDisplay:10.37,2013-02-01 15:08:00,
2013-02-01 09:13:00,6.6,-5.8,30.30,ESE,112,4.7,6.0,56,0.00,OVC,SCT,0.00,0.0,WeatherDisplay:10.37,2013-02-01 15:13:00,
2013-02-01 09:18:00,6.8,-5.6,30.30,ESE,112,4.7,8.1,56,0.00,OVC,SCT,0.00,0.0,WeatherDisplay:10.37,2013-02-01 15:18:00,
2013-02-01 09:23:00,7.0,-5.4,30.30,ESE,112,5.6,6.9,56,0.00,OVC,SCT,0.00,0.0,WeatherDisplay:10.37,2013-02-01 15:23:00,
2013-02-01 09:28:00,7.2,-5.3,30.30,East,90,4.5,5.8,56,0.00,OVC,SCT,0.00,0.0,WeatherDisplay:10.37,2013-02-01 15:28:00,
2013-02-01 09:33:00,7.0,-5.4,30.30,ESE,112,4.5,8.1,56,0.00,OVC,SCT,0.00,0.0,WeatherDisplay:10.37,2013-02-01 15:33:00,
2013-02-01 09:38:00,7.2,-5.3,30.27,SSE,158,8.7,10.5,56,0.00,OVC,SCT,0.00,0.0,WeatherDisplay:10.37,2013-02-01 15:38:00,
2013-02-01 09:43:00,7.3,-5.1,30.27,ESE,112,6.4,8.5,56,0.00,OVC,SCT,0.00,0.0,WeatherDisplay:10.37,2013-02-01 15:43:00,
2013-02-01 09:48:00,7.3,-5.1,30.27,ESE,112,7.1,9.2,56,0.00,OVC,SCT,0.00,0.0,WeatherDisplay:10.37,2013-02-01 15:48:00,
2013-02-01 09:53:00,7.2,-5.3,30.27,SSE,158,7.1,9.2,56,0.00,OVC,SCT,0.00,0.0,WeatherDisplay:10.37,2013-02-01 15:53:00,
2013-02-01 09:58:00,7.2,-5.3,30.27,ESE,112,6.7,8.1,56,0.00,OVC,SCT,0.00,0.0,WeatherDisplay:10.37,2013-02-01 15:58:00,
2013-02-01 10:03:00,7.2,-5.3,30.27,ESE,112,6.4,8.1,56,0.00,OVC,SCT,0.00,0.0,WeatherDisplay:10.37,2013-02-01 16:03:00,
2013-02-01 10:08:00,7.5,-4.9,30.24,SSE,158,5.4,9.8,56,0.00,OVC,SCT,0.00,0.0,WeatherDisplay:10.37,2013-02-01 16:08:00,
2013-02-01 10:13:00,7.9,-4.6,30.24,East,90,5.9,7.4,56,0.00,OVC,SCT,0.00,0.0,WeatherDisplay:10.37,2013-02-01 16:13:00,
2013-02-01 10:18:00,7.9,-4.6,30.24,East,90,6.4,10.2,56,0.00,OVC,SCT,0.00,0.0,WeatherDisplay:10.37,2013-02-01 16:18:00,
2013-02-01 10:23:00,7.9,-4.6,30.24,East,90,6.2,6.9,56,0.00,OVC,SCT,0.00,0.0,WeatherDisplay:10.37,2013-02-01 16:23:00,
2013-02-01 10:28:00,7.9,-4.6,30.24,SSW,202,6.0,8.1,56,0.00,OVC,SCT,0.00,0.0,WeatherDisplay:10.37,2013-02-01 16:28:00,
2013-02-01 10:33:00,7.9,-4.6,30.24,SSE,158,7.1,8.7,56,0.00,OVC,SCT,0.00,0.0,WeatherDisplay:10.37,2013-02-01 16:33:00,
2013-02-01 10:38:00,7.9,-4.6,30.24,ESE,112,6.7,7.6,56,0.00,OVC,SCT,0.00,0.0,WeatherDisplay:10.37,2013-02-01 16:38:00,
2013-02-01 10:43:00,8.1,-4.4,30.24,SSE,158,7.8,10.4,56,0.00,OVC,SCT,0.00,0.0,WeatherDisplay:10.37,2013-02-01 16:43:00,
2013-02-01 10:48:00,8.1,-4.4,30.24,SSE,158,8.1,10.0,56,0.00,OVC,SCT,0.00,0.0,WeatherDisplay:10.37,2013-02-01 16:48:00,
2013-02-01 10:53:00,8.2,-4.3,30.24,ESE,112,6.0,8.1,56,0.00,OVC,SCT,0.00,0.0,WeatherDisplay:10.37,2013-02-01 16:53:00,
2013-02-01 10:58:00,8.4,-4.1,30.24,ESE,112,7.6,8.1,56,0.00,OVC,SCT,0.00,0.0,WeatherDisplay:10.37,2013-02-01 16:58:00,
2013-02-01 11:03:00,8.8,-3.7,30.24,NNW,338,6.0,8.1,56,0.00,OVC,SCT,0.00,0.0,WeatherDisplay:10.37,2013-02-01 17:03:00,
2013-02-01 11:08:00,9.1,-3.4,30.24,SSE,158,7.6,9.2,56,0.00,OVC,SCT,0.00,0.0,WeatherDisplay:10.37,2013-02-01 17:08:00,
2013-02-01 11:14:00,9.3,-3.2,30.24,SSE,158,8.1,11.5,56,0.00,OVC,SCT,0.00,0.0,WeatherDisplay:10.37,2013-02-01 17:14:00,
2013-02-01 11:19:00,9.7,-2.9,30.24,ESE,112,6.0,8.1,56,0.00,OVC,SCT,0.00,0.0,WeatherDisplay:10.37,2013-02-01 17:19:00,
2013-02-01 11:24:00,10.0,-2.6,30.21,ESE,112,6.9,9.7,56,0.00,OVC,SCT,0.00,0.0,WeatherDisplay:10.37,2013-02-01 17:24:00,
2013-02-01 11:29:00,10.2,-2.4,30.21,East,90,5.6,7.4,56,0.00,OVC,SCT,0.00,0.0,WeatherDisplay:10.37,2013-02-01 17:29:00,
2013-02-01 11:34:00,10.8,-1.9,30.21,SSW,202,5.9,6.9,56,0.00,OVC,SCT,0.00,0.0,WeatherDisplay:10.37,2013-02-01 17:34:00,
2013-02-01 11:39:00,10.9,-1.7,30.21,ESE,112,6.9,9.2,56,0.00,OVC,SCT,0.00,100.0,WeatherDisplay:10.37,2013-02-01 17:39:00,
2013-02-01 11:44:00,11.7,-1.0,30.21,ESE,112,4.7,10.4,56,0.00,OVC,SCT,0.00,100.0,WeatherDisplay:10.37,2013-02-01 17:44:00,
2013-02-01 11:49:00,12.0,-0.7,30.21,ESE,112,7.1,8.1,56,0.00,OVC,SCT,0.00,100.0,WeatherDisplay:10.37,2013-02-01 17:49:00,
2013-02-01 11:54:00,12.4,-0.4,30.21,SSE,158,6.9,9.2,56,0.00,OVC,SCT,0.00,100.0,WeatherDisplay:10.37,2013-02-01 17:54:00,
2013-02-01 11:59:00,12.9,0.2,30.21,SE,135,6.2,6.4,56,0.00,OVC,SCT,0.00,100.0,WeatherDisplay:10.37,2013-02-01 17:59:00,
2013-02-01 12:04:00,13.5,0.7,30.21,SSW,202,4.5,6.9,56,0.00,OVC,SCT,0.00,100.0,WeatherDisplay:10.37,2013-02-01 18:04:00,
2013-02-01 12:10:00,14.2,-1.5,30.21,SSW,202,6.9,8.1,49,0.00,OVC,SCT,0.00,100.0,WeatherDisplay:10.37,2013-02-01 18:10:00,
2013-02-01 12:15:00,14.3,-0.9,30.21,South,169,5.0,10.0,50,0.00,OVC,SCT,0.00,100.0,WeatherDisplay:10.37,2013-02-01 18:15:00,
2013-02-01 12:20:00,14.5,-1.2,30.21,SSW,202,5.9,10.4,49,0.00,OVC,SCT,0.00,100.0,WeatherDisplay:10.37,2013-02-01 18:20:00,
2013-02-01 12:25:00,15.1,-0.2,30.18,SSE,158,5.6,8.5,50,0.00,OVC,SCT,0.00,100.0,WeatherDisplay:10.37,2013-02-01 18:25:00,
2013-02-01 12:30:00,15.3,-0.1,30.18,SSW,202,6.2,10.4,50,0.00,OVC,SCT,0.00,100.0,WeatherDisplay:10.37,2013-02-01 18:30:00,
2013-02-01 12:35:00,16.0,0.6,30.18,ENE,68,5.6,8.1,50,0.00,OVC,SCT,0.00,100.0,WeatherDisplay:10.37,2013-02-01 18:35:00,
2013-02-01 12:40:00,16.5,1.5,30.21,ESE,112,5.9,6.9,51,0.00,OVC,SCT,0.00,100.0,WeatherDisplay:10.37,2013-02-01 18:40:00,
2013-02-01 12:45:00,17.1,2.0,30.21,SSE,158,7.4,9.8,51,0.00,OVC,SCT,0.00,0.0,WeatherDisplay:10.37,2013-02-01 18:45:00,
2013-02-01 12:50:00,17.2,2.2,30.21,SSE,158,7.6,9.2,51,0.00,OVC,SCT,0.00,0.0,WeatherDisplay:10.37,2013-02-01 18:50:00,
2013-02-01 12:55:00,17.6,2.9,30.15,SSE,158,6.9,7.4,52,0.00,OVC,SCT,0.00,0.0,WeatherDisplay:10.37,2013-02-01 18:55:00,
2013-02-01 13:00:00,18.0,2.9,30.15,ESE,112,6.2,6.9,51,0.00,OVC,SCT,0.00,0.0,WeatherDisplay:10.37,2013-02-01 19:00:00,
2013-02-01 13:05:00,18.1,3.4,30.15,SSE,158,7.6,8.1,52,0.00,OVC,SCT,0.00,0.0,WeatherDisplay:10.37,2013-02-01 19:05:00,
2013-02-01 13:10:00,18.3,4.0,30.12,SSW,202,6.4,8.1,53,0.00,OVC,SCT,0.00,0.0,WeatherDisplay:10.37,2013-02-01 19:10:00,
2013-02-01 13:15:00,18.5,3.8,30.12,SSE,158,8.7,11.5,52,0.00,OVC,SCT,0.00,0.0,WeatherDisplay:10.37,2013-02-01 19:15:00,
2013-02-01 13:20:00,18.9,4.5,30.12,SSE,158,6.7,10.2,53,0.00,OVC,SCT,0.00,0.0,WeatherDisplay:10.37,2013-02-01 19:20:00,
2013-02-01 13:26:00,19.2,5.3,30.09,SSW,202,9.4,10.9,54,0.00,OVC,SCT,0.00,0.0,WeatherDisplay:10.37,2013-02-01 19:26:00,
2013-02-01 13:31:00,19.6,5.6,30.09,SSW,202,9.0,10.5,54,0.00,OVC,SCT,0.00,0.0,WeatherDisplay:10.37,2013-02-01 19:31:00,
2013-02-01 13:36:00,20.3,6.7,30.09,SSW,202,7.1,10.4,55,0.00,OVC,SCT,0.00,0.0,WeatherDisplay:10.37,2013-02-01 19:36:00,
2013-02-01 13:41:00,20.8,7.6,30.12,South,180,8.7,10.4,56,0.00,OVC,SCT,0.00,0.0,WeatherDisplay:10.37,2013-02-01 19:41:00,
2013-02-01 13:46:00,21.9,9.0,30.12,SSE,158,7.1,9.2,57,0.00,OVC,SCT,0.00,0.0,WeatherDisplay:10.37,2013-02-01 19:46:00,
2013-02-01 13:51:00,22.5,9.5,30.12,SSW,202,11.2,15.2,57,0.00,OVC,SCT,0.00,0.0,WeatherDisplay:10.37,2013-02-01 19:51:00,
2013-02-01 13:56:00,23.5,9.7,30.09,SSW,202,10.5,12.7,55,0.00,OVC,SCT,0.00,0.0,WeatherDisplay:10.37,2013-02-01 19:56:00,
2013-02-01 14:01:00,23.9,9.2,30.09,SSW,202,7.8,11.5,53,0.00,OVC,SCT,0.00,0.0,WeatherDisplay:10.37,2013-02-01 20:01:00,
2013-02-01 14:06:00,24.4,9.7,30.09,SSE,158,7.8,11.5,53,0.00,OVC,SCT,0.00,0.0,WeatherDisplay:10.37,2013-02-01 20:06:00,
2013-02-01 14:12:00,24.8,10.1,30.09,South,180,8.5,12.7,53,0.00,OVC,SCT,0.00,0.0,WeatherDisplay:10.37,2013-02-01 20:12:00,
2013-02-01 14:17:00,24.8,9.6,30.09,South,180,9.0,9.2,52,0.00,OVC,SCT,0.00,0.0,WeatherDisplay:10.37,2013-02-01 20:17:00,
2013-02-01 14:22:00,25.0,9.8,30.09,SSW,202,4.5,5.8,52,0.00,OVC,SCT,0.00,0.0,WeatherDisplay:10.37,2013-02-01 20:22:00,
2013-02-01 14:27:00,25.2,9.5,30.12,SSW,202,12.3,16.1,51,0.00,OVC,SCT,0.00,0.0,WeatherDisplay:10.37,2013-02-01 20:27:00,
2013-02-01 14:32:00,25.3,10.1,30.12,South,180,8.1,12.7,52,0.00,OVC,SCT,0.00,0.0,WeatherDisplay:10.37,2013-02-01 20:32:00,
2013-02-01 14:37:00,25.3,9.7,30.12,SW,225,10.0,11.5,51,0.00,OVC,SCT,0.00,0.0,WeatherDisplay:10.37,2013-02-01 20:37:00,
2013-02-01 14:42:00,25.5,10.3,30.09,WSW,248,7.4,10.0,52,0.00,OVC,SCT,0.00,0.0,WeatherDisplay:10.37,2013-02-01 20:42:00,
2013-02-01 14:48:00,25.7,10.5,30.09,SW,225,8.1,13.8,52,0.00,OVC,SCT,0.00,0.0,WeatherDisplay:10.37,2013-02-01 20:48:00,
2013-02-01 14:53:00,25.9,10.6,30.09,WSW,248,8.7,12.7,52,0.00,OVC,SCT,0.00,0.0,WeatherDisplay:10.37,2013-02-01 20:53:00,
2013-02-01 14:58:00,25.9,10.2,30.09,South,180,8.5,15.0,51,0.00,OVC,SCT,0.00,0.0,WeatherDisplay:10.37,2013-02-01 20:58:00,
2013-02-01 15:03:00,26.1,10.8,30.09,WSW,248,9.0,11.5,52,0.00,OVC,SCT,0.00,0.0,WeatherDisplay:10.37,2013-02-01 21:03:00,
2013-02-01 15:08:00,26.1,10.4,30.09,West,270,7.4,12.7,51,0.00,OVC,SCT,0.00,0.0,WeatherDisplay:10.37,2013-02-01 21:08:00,
2013-02-01 15:13:00,25.9,10.2,30.09,SSW,202,9.2,12.3,51,0.00,OVC,SCT,0.00,0.0,WeatherDisplay:10.37,2013-02-01 21:13:00,
2013-02-01 15:18:00,25.9,10.2,30.09,West,270,10.5,12.7,51,0.00,OVC,SCT,0.00,0.0,WeatherDisplay:10.37,2013-02-01 21:18:00,
2013-02-01 15:23:00,25.9,9.8,30.06,SSW,202,10.2,12.7,50,0.00,OVC,SCT,0.00,0.0,WeatherDisplay:10.37,2013-02-01 21:23:00,
2013-02-01 15:28:00,26.1,10.4,30.06,WSW,248,8.5,12.7,51,0.00,OVC,SCT,0.00,0.0,WeatherDisplay:10.37,2013-02-01 21:28:00,
2013-02-01 15:33:00,26.1,9.9,30.06,SSW,202,7.6,9.2,50,0.00,OVC,SCT,0.00,0.0,WeatherDisplay:10.37,2013-02-01 21:33:00,
2013-02-01 15:38:00,26.1,9.5,30.06,SW,225,9.8,13.8,49,0.00,OVC,SCT,0.00,0.0,WeatherDisplay:10.37,2013-02-01 21:38:00,
2013-02-01 15:43:00,26.2,10.5,30.06,SSW,202,6.2,6.2,51,0.00,OVC,SCT,0.00,0.0,WeatherDisplay:10.37,2013-02-01 21:43:00,
2013-02-01 15:48:00,26.2,9.6,30.06,WSW,248,8.5,10.4,49,0.00,OVC,SCT,0.00,0.0,WeatherDisplay:10.37,2013-02-01 21:48:00,
2013-02-01 15:54:00,26.4,10.7,30.06,WSW,248,5.9,9.2,51,0.00,OVC,SCT,0.00,0.0,WeatherDisplay:10.37,2013-02-01 21:54:00,
2013-02-01 15:59:00,26.4,10.3,30.06,WSW,248,8.5,11.5,50,0.00,OVC,SCT,0.00,0.0,WeatherDisplay:10.37,2013-02-01 21:59:00,
2013-02-01 16:04:00,26.4,10.7,30.06,SSE,158,6.2,12.3,51,0.00,OVC,SCT,0.00,0.0,WeatherDisplay:10.37,2013-02-01 22:04:00,
2013-02-01 16:09:00,26.6,10.4,30.06,SSE,158,7.1,10.2,50,0.00,OVC,SCT,0.00,0.0,WeatherDisplay:10.37,2013-02-01 22:09:00,
2013-02-01 16:14:00,26.6,10.4,30.06,SSW,202,7.1,10.4,50,0.00,OVC,SCT,0.00,0.0,WeatherDisplay:10.37,2013-02-01 22:14:00,
2013-02-01 16:19:00,26.6,10.0,30.06,SSW,202,8.1,12.7,49,0.00,OVC,SCT,0.00,0.0,WeatherDisplay:10.37,2013-02-01 22:19:00,
2013-02-01 16:24:00,26.6,9.5,30.03,SSW,202,9.4,13.8,48,0.00,OVC,SCT,0.00,0.0,WeatherDisplay:10.37,2013-02-01 22:24:00,
2013-02-01 16:29:00,26.6,10.0,30.03,WSW,248,6.4,9.2,49,0.00,OVC,SCT,0.00,0.0,WeatherDisplay:10.37,2013-02-01 22:29:00,
2013-02-01 16:34:00,26.6,9.5,30.03,SSE,158,6.9,11.5,48,0.00,OVC,SCT,0.00,0.0,WeatherDisplay:10.37,2013-02-01 22:34:00,
2013-02-01 16:39:00,26.6,9.5,30.00,ENE,68,6.9,8.1,48,0.00,OVC,SCT,0.00,0.0,WeatherDisplay:10.37,2013-02-01 22:39:00,
2013-02-01 16:44:00,26.6,9.5,30.00,SSE,158,6.4,11.5,48,0.00,OVC,SCT,0.00,0.0,WeatherDisplay:10.37,2013-02-01 22:44:00,
2013-02-01 16:49:00,26.6,9.1,30.00,SW,225,10.0,12.7,47,0.00,OVC,SCT,0.00,0.0,WeatherDisplay:10.37,2013-02-01 22:49:00,
2013-02-01 16:54:00,26.6,9.5,30.00,SSW,202,6.2,9.2,48,0.00,OVC,SCT,0.00,0.0,WeatherDisplay:10.37,2013-02-01 22:54:00,
2013-02-01 16:59:00,26.4,8.9,30.00,SW,225,8.7,11.5,47,0.00,OVC,SCT,0.00,0.0,WeatherDisplay:10.37,2013-02-01 22:59:00,
2013-02-01 17:04:00,26.4,9.4,30.00,WSW,248,7.1,8.1,48,0.00,OVC,SCT,0.00,0.0,WeatherDisplay:10.37,2013-02-01 23:04:00,
2013-02-01 17:09:00,26.4,9.4,30.03,WSW,248,7.6,12.8,48,0.00,OVC,SCT,0.00,0.0,WeatherDisplay:10.37,2013-02-01 23:09:00,
2013-02-01 17:15:00,26.4,9.8,30.03,SSW,201,9.0,13.0,49,0.00,OVC,SCT,0.00,0.0,WeatherDisplay:10.37,2013-02-01 23:15:00,
2013-02-01 17:20:00,26.4,9.4,30.03,SSW,202,7.8,10.4,48,0.00,OVC,SCT,0.00,0.0,WeatherDisplay:10.37,2013-02-01 23:20:00,
2013-02-01 17:25:00,26.2,9.6,30.00,West,270,9.7,12.7,49,0.00,OVC,SCT,0.00,0.0,WeatherDisplay:10.37,2013-02-01 23:25:00,
2013-02-01 17:30:00,26.2,9.6,30.00,SW,225,6.2,8.1,49,0.00,OVC,SCT,0.00,0.0,WeatherDisplay:10.37,2013-02-01 23:30:00,
2013-02-01 17:35:00,26.2,9.6,30.00,SSW,202,7.1,11.5,49,0.00,OVC,SCT,0.00,0.0,WeatherDisplay:10.37,2013-02-01 23:35:00,
2013-02-01 17:40:00,26.2,9.6,30.00,WSW,248,7.4,13.8,49,0.00,OVC,SCT,0.00,0.0,WeatherDisplay:10.37,2013-02-01 23:40:00,
2013-02-01 17:45:00,26.1,9.5,30.00,WSW,248,7.6,12.7,49,0.00,OVC,SCT,0.00,0.0,WeatherDisplay:10.37,2013-02-01 23:45:00,
2013-02-01 17:50:00,26.1,9.5,30.00,SW,225,5.9,7.6,49,0.00,OVC,SCT,0.00,0.0,WeatherDisplay:10.37,2013-02-01 23:50:00,
2013-02-01 17:55:00,26.1,9.5,30.03,WSW,248,7.6,7.6,49,0.00,OVC,SCT,0.00,0.0,WeatherDisplay:10.37,2013-02-01 23:55:00,
2013-02-01 18:00:00,26.1,9.9,30.03,South,180,6.9,10.9,50,0.00,CLR,SCT,0.00,0.0,WeatherDisplay:10.37,2013-02-02 00:00:00,
2013-02-01 18:05:00,25.9,9.8,30.03,WSW,248,6.4,9.2,50,0.00,CLR,SCT,0.00,0.0,WeatherDisplay:10.37,2013-02-02 00:05:00,
2013-02-01 18:10:00,25.9,9.8,30.03,WSW,248,6.0,10.4,50,0.00,CLR,SCT,0.00,0.0,WeatherDisplay:10.37,2013-02-02 00:10:00,
2013-02-01 18:15:00,25.7,10.5,30.03,SSE,158,7.8,10.4,52,0.00,CLR,SCT,0.00,0.0,WeatherDisplay:10.37,2013-02-02 00:15:00,
2013-02-01 18:20:00,25.7,10.0,30.03,WSW,248,6.4,9.2,51,0.00,CLR,SCT,0.00,0.0,WeatherDisplay:10.37,2013-02-02 00:20:00,
2013-02-01 18:25:00,25.7,10.5,30.03,SSW,202,6.7,8.1,52,0.00,CLR,SCT,0.00,0.0,WeatherDisplay:10.37,2013-02-02 00:25:00,
2013-02-01 18:31:00,25.7,10.5,30.03,SSE,158,6.9,10.4,52,0.00,CLR,SCT,0.00,0.0,WeatherDisplay:10.37,2013-02-02 00:31:00,
2013-02-01 18:36:00,25.7,10.5,30.03,SSW,202,4.5,6.0,52,0.00,CLR,SCT,0.00,0.0,WeatherDisplay:10.37,2013-02-02 00:36:00,
2013-02-01 18:41:00,25.7,10.5,30.03,WSW,248,6.9,8.1,52,0.00,CLR,SCT,0.00,0.0,WeatherDisplay:10.37,2013-02-02 00:41:00,
2013-02-01 18:46:00,25.5,10.3,30.03,WSW,248,5.9,6.9,52,0.00,CLR,SCT,0.00,0.0,WeatherDisplay:10.37,2013-02-02 00:46:00,
2013-02-01 18:51:00,25.5,10.3,30.03,SSE,158,5.6,8.1,52,0.00,CLR,SCT,0.00,0.0,WeatherDisplay:10.37,2013-02-02 00:51:00,
2013-02-01 18:56:00,25.5,10.3,30.03,WSW,248,7.1,8.1,52,0.00,CLR,SCT,0.00,0.0,WeatherDisplay:10.37,2013-02-02 00:56:00,
2013-02-01 19:01:00,25.5,10.3,30.03,West,270,4.0,8.1,52,0.00,CLR,SCT,0.00,0.0,WeatherDisplay:10.37,2013-02-02 01:01:00,
2013-02-01 19:06:00,25.5,10.3,30.03,SSW,202,4.9,9.2,52,0.00,CLR,SCT,0.00,0.0,WeatherDisplay:10.37,2013-02-02 01:06:00,
2013-02-01 19:12:00,25.5,10.3,30.03,WSW,248,6.4,8.1,52,0.00,CLR,SCT,0.00,0.0,WeatherDisplay:10.37,2013-02-02 01:12:00,
2013-02-01 19:17:00,25.5,10.3,30.03,South,180,6.9,8.1,52,0.00,CLR,SCT,0.00,0.0,WeatherDisplay:10.37,2013-02-02 01:17:00,
2013-02-01 19:22:00,25.3,10.1,30.03,SSW,202,4.5,6.9,52,0.00,CLR,SCT,0.00,0.0,WeatherDisplay:10.37,2013-02-02 01:22:00,
2013-02-01 19:27:00,25.5,10.3,30.06,SSW,202,5.4,8.1,52,0.00,CLR,SCT,0.00,0.0,WeatherDisplay:10.37,2013-02-02 01:27:00,
2013-02-01 19:32:00,25.5,10.3,30.06,WSW,248,6.2,8.1,52,0.00,CLR,SCT,0.00,0.0,WeatherDisplay:10.37,2013-02-02 01:32:00,
2013-02-01 19:37:00,25.3,10.1,30.06,South,180,4.3,6.9,52,0.00,CLR,SCT,0.00,0.0,WeatherDisplay:10.37,2013-02-02 01:37:00,
2013-02-01 19:42:00,25.3,10.1,30.06,South,180,5.4,6.2,52,0.00,CLR,SCT,0.00,0.0,WeatherDisplay:10.37,2013-02-02 01:42:00,
2013-02-01 19:47:00,25.5,10.3,30.06,SSE,158,5.9,6.4,52,0.00,CLR,SCT,0.00,0.0,WeatherDisplay:10.37,2013-02-02 01:47:00,
2013-02-01 19:52:00,25.5,10.3,30.06,SSW,202,4.5,5.8,52,0.00,CLR,SCT,0.00,0.0,WeatherDisplay:10.37,2013-02-02 01:52:00,
2013-02-01 19:57:00,25.5,10.3,30.03,South,180,4.5,6.0,52,0.00,CLR,SCT,0.00,0.0,WeatherDisplay:10.37,2013-02-02 01:57:00,
2013-02-01 20:02:00,25.5,10.3,30.03,SSW,202,4.9,6.9,52,0.00,CLR,SCT,0.00,0.0,WeatherDisplay:10.37,2013-02-02 02:02:00,
2013-02-01 20:07:00,25.7,10.5,30.03,SSW,202,6.7,10.0,52,0.00,CLR,SCT,0.00,0.0,WeatherDisplay:10.37,2013-02-02 02:07:00,
2013-02-01 20:12:00,25.7,10.5,30.03,SSW,202,5.6,7.4,52,0.00,CLR,SCT,0.00,0.0,WeatherDisplay:10.37,2013-02-02 02:12:00,
2013-02-01 20:18:00,25.7,10.5,30.03,SSE,158,4.7,8.1,52,0.00,CLR,SCT,0.00,0.0,WeatherDisplay:10.37,2013-02-02 02:18:00,
2013-02-01 20:23:00,25.7,10.5,30.03,SSE,158,4.7,5.9,52,0.00,CLR,SCT,0.00,0.0,WeatherDisplay:10.37,2013-02-02 02:23:00,
2013-02-01 20:28:00,25.7,10.5,30.03,WSW,248,5.6,9.8,52,0.00,CLR,SCT,0.00,0.0,WeatherDisplay:10.37,2013-02-02 02:28:00,
2013-02-01 20:33:00,25.7,10.5,30.03,SSW,202,5.6,9.2,52,0.00,CLR,SCT,0.00,0.0,WeatherDisplay:10.37,2013-02-02 02:33:00,
2013-02-01 20:38:00,25.7,10.9,30.06,South,180,5.6,7.8,53,0.00,CLR,SCT,0.00,0.0,WeatherDisplay:10.37,2013-02-02 02:38:00,
2013-02-01 20:43:00,25.7,10.9,30.06,SSW,202,5.9,9.2,53,0.00,CLR,SCT,0.00,0.0,WeatherDisplay:10.37,2013-02-02 02:43:00,
2013-02-01 20:48:00,25.5,10.7,30.06,SSW,202,6.7,10.4,53,0.00,CLR,SCT,0.00,0.0,WeatherDisplay:10.37,2013-02-02 02:48:00,
2013-02-01 20:53:00,25.5,10.7,30.03,SW,225,7.4,8.5,53,0.00,CLR,SCT,0.00,0.0,WeatherDisplay:10.37,2013-02-02 02:53:00,
2013-02-01 20:58:00,25.5,10.7,30.03,WSW,248,7.6,9.2,53,0.00,CLR,SCT,0.00,0.0,WeatherDisplay:10.37,2013-02-02 02:58:00,
2013-02-01 21:03:00,25.5,10.7,30.03,South,180,6.2,10.4,53,0.00,CLR,SCT,0.00,0.0,WeatherDisplay:10.37,2013-02-02 03:03:00,
2013-02-01 21:09:00,25.5,10.7,30.03,South,180,6.4,8.1,53,0.00,CLR,SCT,0.00,0.0,WeatherDisplay:10.37,2013-02-02 03:09:00,
2013-02-01 21:14:00,25.5,10.7,30.03,SSW,202,7.6,9.2,53,0.00,CLR,SCT,0.00,0.0,WeatherDisplay:10.37,2013-02-02 03:14:00,
2013-02-01 21:19:00,25.5,10.7,30.03,SSW,202,6.2,9.2,53,0.00,CLR,SCT,0.00,0.0,WeatherDisplay:10.37,2013-02-02 03:19:00,
2013-02-01 21:24:00,25.5,10.7,30.03,SW,225,6.9,9.2,53,0.00,CLR,SCT,0.00,0.0,WeatherDisplay:10.37,2013-02-02 03:24:00,
2013-02-01 21:29:00,25.3,10.6,30.03,SSW,202,4.9,6.9,53,0.00,CLR,SCT,0.00,0.0,WeatherDisplay:10.37,2013-02-02 03:29:00,
2013-02-01 21:34:00,25.3,11.0,30.03,WSW,248,5.9,6.9,54,0.00,CLR,SCT,0.00,0.0,WeatherDisplay:10.37,2013-02-02 03:34:00,
2013-02-01 21:39:00,25.2,10.4,30.06,SSW,202,5.6,8.1,53,0.00,CLR,SCT,0.00,0.0,WeatherDisplay:10.37,2013-02-02 03:39:00,
2013-02-01 21:44:00,25.2,10.4,30.06,WSW,248,6.0,8.1,53,0.00,CLR,SCT,0.00,0.0,WeatherDisplay:10.37,2013-02-02 03:44:00,
2013-02-01 21:49:00,25.2,10.8,30.06,SSW,202,5.6,6.9,54,0.00,CLR,SCT,0.00,0.0,WeatherDisplay:10.37,2013-02-02 03:49:00,
2013-02-01 21:54:00,25.0,10.7,30.06,SW,225,3.3,5.8,54,0.00,CLR,SCT,0.00,0.0,WeatherDisplay:10.37,2013-02-02 03:54:00,
2013-02-01 21:59:00,24.8,10.9,30.06,WSW,248,3.3,4.6,55,0.00,CLR,SCT,0.00,0.0,WeatherDisplay:10.37,2013-02-02 03:59:00,
2013-02-01 22:04:00,24.8,10.9,30.06,WSW,248,3.6,4.6,55,0.00,CLR,SCT,0.00,0.0,WeatherDisplay:10.37,2013-02-02 04:04:00,
2013-02-01 22:10:00,24.8,10.9,30.06,WSW,248,2.0,3.5,55,0.00,CLR,SCT,0.00,0.0,WeatherDisplay:10.37,2013-02-02 04:10:00,
2013-02-01 22:15:00,25.0,11.5,30.06,WSW,248,3.6,4.7,56,0.00,CLR,SCT,0.00,0.0,WeatherDisplay:10.37,2013-02-02 04:15:00,
2013-02-01 22:20:00,25.0,11.5,30.06,WSW,248,2.0,3.5,56,0.00,CLR,SCT,0.00,0.0,WeatherDisplay:10.37,2013-02-02 04:20:00,
2013-02-01 22:25:00,25.2,11.6,30.09,WSW,248,0.0,2.3,56,0.00,CLR,SCT,0.00,0.0,WeatherDisplay:10.37,2013-02-02 04:25:00,
2013-02-01 22:30:00,25.3,11.8,30.09,West,270,1.6,2.4,56,0.00,CLR,SCT,0.00,0.0,WeatherDisplay:10.37,2013-02-02 04:30:00,
2013-02-01 22:35:00,25.3,12.2,30.09,WSW,248,3.1,3.5,57,0.00,CLR,SCT,0.00,0.0,WeatherDisplay:10.37,2013-02-02 04:35:00,
2013-02-01 22:40:00,25.5,12.4,30.06,WSW,248,3.8,5.8,57,0.00,CLR,SCT,0.00,0.0,WeatherDisplay:10.37,2013-02-02 04:40:00,
2013-02-01 22:45:00,25.7,12.2,30.06,WSW,248,4.7,6.9,56,0.00,CLR,SCT,0.00,0.0,WeatherDisplay:10.37,2013-02-02 04:45:00,
2013-02-01 22:51:00,25.9,12.3,30.06,WSW,248,5.4,6.4,56,0.00,CLR,SCT,0.00,0.0,WeatherDisplay:10.37,2013-02-02 04:51:00,
2013-02-01 22:56:00,25.9,12.3,30.06,WSW,248,5.4,7.4,56,0.00,CLR,SCT,0.00,0.0,WeatherDisplay:10.37,2013-02-02 04:56:00,
2013-02-01 23:00:00,25.9,12.3,30.06,WSW,248,4.9,5.8,56,0.00,CLR,SCT,0.00,0.0,WeatherDisplay:10.37,2013-02-02 05:00:00,
2013-02-01 23:05:00,26.1,12.5,30.06,WSW,248,4.3,6.9,56,0.00,CLR,SCT,0.00,0.0,WeatherDisplay:10.37,2013-02-02 05:05:00,
2013-02-01 23:10:00,26.1,12.9,30.06,WSW,248,4.5,7.6,57,0.00,CLR,SCT,0.00,0.0,WeatherDisplay:10.37,2013-02-02 05:10:00,
2013-02-01 23:15:00,26.1,12.5,30.06,West,270,6.0,9.2,56,0.00,CLR,SCT,0.00,0.0,WeatherDisplay:10.37,2013-02-02 05:15:00,
2013-02-01 23:21:00,26.1,12.9,30.06,WSW,248,6.2,8.1,57,0.00,CLR,SCT,0.00,0.0,WeatherDisplay:10.37,2013-02-02 05:21:00,
2013-02-01 23:26:00,26.1,12.9,30.03,WSW,248,5.4,8.1,57,0.00,CLR,SCT,0.00,0.0,WeatherDisplay:10.37,2013-02-02 05:26:00,
2013-02-01 23:31:00,26.1,12.9,30.03,WSW,248,5.4,5.8,57,0.00,CLR,SCT,0.00,0.0,WeatherDisplay:10.37,2013-02-02 05:31:00,
2013-02-01 23:36:00,26.1,12.9,30.03,WSW,248,5.9,8.1,57,0.00,CLR,SCT,0.00,0.0,WeatherDisplay:10.37,2013-02-02 05:36:00,
2013-02-01 23:41:00,25.9,12.7,30.06,WSW,248,5.4,8.1,57,0.00,CLR,SCT,0.00,0.0,WeatherDisplay:10.37,2013-02-02 05:41:00,
2013-02-01 23:46:00,25.5,12.8,30.06,West,270,4.7,6.9,58,0.00,CLR,SCT,0.00,0.0,WeatherDisplay:10.37,2013-02-02 05:46:00,
2013-02-01 23:51:00,25.3,13.0,30.06,WSW,248,5.4,8.1,59,0.00,CLR,SCT,0.00,0.0,WeatherDisplay:10.37,2013-02-02 05:51:00,
2013-02-01 23:56:00,25.3,13.4,30.06,WNW,292,4.3,6.9,60,0.00,CLR,SCT,0.00,0.0,WeatherDisplay:10.37,2013-02-02 05:56:00,